Weather reports worldwide

Advertisment
Dunkerque, France (7010): temperature & dewpoint: 16.09.2018 23:00:00 - 22.09.2018 23:00:00 (CEST)Dunkerque, France (7010): wind speed & gusts: 16.09.2018 23:00:00 - 22.09.2018 23:00:00 (CEST)Dunkerque, France (7010): wind direction: 16.09.2018 23:00:00 - 22.09.2018 23:00:00 (CEST)Dunkerque, France (7010): reduced air pressure: 16.09.2018 23:00:00 - 22.09.2018 23:00:00 (CEST)Dunkerque, France (7010): visibility: 16.09.2018 23:00:00 - 22.09.2018 23:00:00 (CEST)Dunkerque, France (7010): precipitation: 16.09.2018 23:00:00 - 22.09.2018 23:00:00 (CEST)
Date & Time tt [°C] td [°C] ff [km/h] ff [kn] fx [km/h] fx [kn] dd ppp [hPa] vv [km] rr [mm]
22.09.2018 23:00:00 11,2 10,4 17 9 25 14 ESE 1015,3 - 0,6
22.09.2018 22:00:00 11,2 10,3 13 7 22 12 SE 1016,4 - 0,8
22.09.2018 21:00:00 11,2 10,1 15 8 25 13 SSE 1016,8 - 0,6
22.09.2018 20:00:00 11,1 9,8 8 5 17 9 S 1017,4 13 1,0
22.09.2018 19:00:00 11,9 10,3 10 6 15 8 S 1017,8 - 0,2
22.09.2018 18:00:00 11,8 9,9 11 6 20 11 SSW 1018,4 - 0,8
22.09.2018 17:00:00 12,4 9,9 11 6 23 13 S 1019,2 13 0,2
22.09.2018 16:00:00 13,2 9,3 18 10 31 17 SSW 1019,7 - 0,0
22.09.2018 15:00:00 14,1 8,3 17 9 36 20 W 1020,3 - 0,2
22.09.2018 14:00:00 13,3 10,5 20 11 41 22 SW 1020,5 - 0,8
22.09.2018 13:00:00 14,1 9,7 21 12 42 23 SW 1020,3 - 0,0
22.09.2018 12:00:00 15,2 10,0 14 8 29 16 SW 1019,9 - 0,0
22.09.2018 11:00:00 14,2 9,6 18 10 26 14 SSW 1020,1 - 0,0
22.09.2018 10:00:00 13,7 8,9 16 8 23 13 SSW 1019,9 - 0,0
22.09.2018 09:00:00 13,2 9,3 10 6 22 12 SSW 1020,1 - 0,0
22.09.2018 08:00:00 12,9 8,8 12 6 22 12 SW 1019,8 - 0,0
22.09.2018 07:00:00 13,6 8,4 11 6 34 18 SW 1019,7 - 0,0
22.09.2018 06:00:00 14,8 8,7 26 14 40 22 W 1019,6 - 0,0
22.09.2018 05:00:00 14,7 8,2 27 15 42 23 W 1019,3 - 0,0
22.09.2018 04:00:00 14,8 9,2 27 14 42 23 W 1019,3 - 0,0
22.09.2018 03:00:00 14,8 8,9 27 15 48 26 W 1019,1 - 0,0
22.09.2018 02:00:00 15,2 8,9 34 18 53 28 WNW 1019,0 - 0,0
22.09.2018 01:00:00 15,4 9,3 35 19 57 31 W 1018,6 - 0,0
22.09.2018 00:00:00 15,7 9,1 37 20 57 31 W 1017,8 - 0,0
21.09.2018 23:00:00 15,9 8,6 38 20 64 35 W 1017,2 25 0,0
21.09.2018 22:00:00 16,2 8,2 39 21 65 35 W 1016,2 - 0,0
21.09.2018 21:00:00 16,5 8,2 45 25 69 37 W 1015,1 - 0,0
21.09.2018 20:00:00 16,8 9,0 40 22 70 38 W 1014,0 8 0,0
21.09.2018 19:00:00 16,6 8,5 35 19 77 42 WSW 1012,9 - 0,0
21.09.2018 18:00:00 17,1 8,0 36 20 75 40 WSW 1012,6 - 0,0
21.09.2018 17:00:00 16,7 8,1 40 21 73 40 WSW 1012,2 - 0,0
21.09.2018 16:00:00 17,0 8,4 32 17 72 39 W 1011,6 - 0,0
21.09.2018 15:00:00 16,9 7,0 40 22 74 40 W 1011,3 - 0,0
21.09.2018 14:00:00 15,9 8,4 42 23 65 35 W 1010,9 8 0,0
21.09.2018 13:00:00 15,6 7,6 39 21 64 35 W 1010,3 - 0,0
21.09.2018 12:00:00 15,3 8,1 40 22 66 36 W 1009,4 - 0,0
21.09.2018 11:00:00 14,9 8,6 48 26 68 37 W 1008,2 8 0,0
21.09.2018 10:00:00 14,9 8,4 40 21 65 35 W 1006,4 - 0,0
21.09.2018 09:00:00 15,2 9,5 42 23 66 36 W 1005,2 - 0,0
21.09.2018 08:00:00 15,9 9,3 45 24 79 42 W 1003,7 - 0,0
21.09.2018 07:00:00 16,7 9,9 41 22 70 38 W 1002,6 - 0,4
21.09.2018 06:00:00 17,8 15,2 35 19 67 36 SSW 1000,2 - 0,2
21.09.2018 05:00:00 19,2 13,6 33 18 62 33 SSW 1000,5 - 0,0
21.09.2018 04:00:00 19,4 13,3 31 17 66 35 SSW 1001,2 - 0,0
21.09.2018 03:00:00 19,5 13,2 29 15 49 26 SSW 1002,7 - 0,0
21.09.2018 02:00:00 19,6 13,1 26 14 43 23 SSW 1004,7 - 0,0
21.09.2018 01:00:00 19,2 13,8 21 11 37 20 SSW 1005,7 - 0,0
21.09.2018 00:00:00 19,9 14,3 23 12 37 20 SSW 1006,4 - 0,0
20.09.2018 23:00:00 20,1 14,7 16 8 29 15 SSW 1007,5 - 0,0
20.09.2018 22:00:00 19,5 14,7 8 5 16 9 SSW 1008,4 - 0,0
20.09.2018 21:00:00 20,2 14,6 9 5 21 11 SSW 1009,0 - 0,0
20.09.2018 20:00:00 20,7 14,8 11 6 27 14 SW 1010,1 - 0,0
20.09.2018 19:00:00 21,8 14,9 16 9 31 17 WSW 1010,8 - 0,0
20.09.2018 18:00:00 22,7 14,8 16 8 43 23 SW 1011,7 - 0,0
20.09.2018 17:00:00 23,0 13,5 23 12 44 24 SSW 1012,1 - 0,0
20.09.2018 16:00:00 22,0 13,1 19 11 42 23 SW 1012,9 - 0,0
20.09.2018 15:00:00 21,3 14,0 28 15 46 25 SW 1013,8 - 0,0
20.09.2018 14:00:00 22,2 14,1 24 13 58 31 SW 1014,3 10 0,0
20.09.2018 13:00:00 20,7 14,3 29 16 55 30 SW 1014,7 - 0,0
20.09.2018 12:00:00 20,6 14,7 29 15 50 27 SW 1015,1 - 0,0
20.09.2018 11:00:00 19,4 14,9 22 12 41 22 SW 1015,4 15 0,0
20.09.2018 10:00:00 18,9 15,2 22 12 40 22 SW 1015,4 - 0,0
20.09.2018 09:00:00 17,8 15,4 13 7 23 12 SSW 1015,8 - 0,0
20.09.2018 08:00:00 16,5 14,9 10 5 19 11 S 1015,7 - 0,0
20.09.2018 07:00:00 16,9 14,7 13 7 23 12 S 1015,3 - 0,0
20.09.2018 06:00:00 16,8 15,0 16 8 22 12 S 1015,8 - 0,0
20.09.2018 05:00:00 17,1 15,4 11 6 23 13 S 1016,0 - 0,0
20.09.2018 04:00:00 18,6 15,5 17 9 32 17 SW 1016,2 - 0,0
20.09.2018 03:00:00 18,4 15,5 13 7 25 13 SSW 1016,2 - 0,0
20.09.2018 02:00:00 17,8 15,2 13 7 26 14 S 1016,4 - 0,0
20.09.2018 01:00:00 18,1 15,4 13 7 28 15 S 1016,9 - 0,0
20.09.2018 00:00:00 18,8 15,3 14 8 25 13 SSW 1017,1 - 0,0
19.09.2018 23:00:00 18,9 15,2 16 9 38 20 SSW 1017,2 20 0,0
19.09.2018 22:00:00 19,7 15,3 19 11 39 21 SW 1017,1 - 0,0
19.09.2018 21:00:00 20,6 14,9 23 12 41 22 SW 1016,7 - 0,0
19.09.2018 20:00:00 21,2 14,6 21 11 51 27 SW 1016,3 20 0,0
19.09.2018 19:00:00 22,6 14,4 32 17 68 37 SW 1015,9 - 0,0
19.09.2018 18:00:00 22,3 14,2 32 17 72 39 SW 1015,7 - 0,0
19.09.2018 17:00:00 22,0 14,1 34 18 62 33 SW 1015,8 - 0,0
19.09.2018 16:00:00 22,1 14,5 32 17 61 33 SW 1015,9 - 0,0
19.09.2018 15:00:00 21,4 14,5 34 19 61 33 SW 1015,9 - 0,0
19.09.2018 14:00:00 21,7 15,1 31 17 58 31 SW 1016,0 - 0,0
19.09.2018 13:00:00 21,0 14,4 24 13 49 27 SW 1015,8 - 0,0
19.09.2018 12:00:00 20,1 14,5 21 12 45 24 SW 1016,2 - 0,0
19.09.2018 11:00:00 19,5 14,9 22 12 45 25 SSW 1016,2 15 0,0
19.09.2018 10:00:00 18,1 14,8 19 11 37 20 SSW 1015,9 - 0,0
19.09.2018 09:00:00 17,2 14,8 15 8 25 14 SSW 1015,4 - 0,0
19.09.2018 08:00:00 16,0 14,4 15 8 21 12 SSW 1015,0 - 0,0
19.09.2018 07:00:00 15,5 13,3 15 8 22 12 S 1014,7 - 0,0
19.09.2018 06:00:00 15,6 13,3 15 8 20 11 S 1014,5 - 0,0
19.09.2018 05:00:00 15,9 13,4 11 6 15 8 S 1015,0 - 0,0
19.09.2018 04:00:00 15,7 13,4 9 5 13 7 S 1015,3 - 0,0
19.09.2018 03:00:00 15,6 13,3 8 4 18 10 SSW 1015,5 - 0,0
19.09.2018 02:00:00 15,8 13,3 10 6 20 11 S 1015,3 - 0,0
19.09.2018 01:00:00 15,8 13,1 13 7 19 10 S 1015,2 - 0,0
19.09.2018 00:00:00 16,3 13,8 12 6 17 9 S 1015,0 - 0,0
18.09.2018 23:00:00 17,7 14,0 12 6 23 13 S 1015,0 - 0,0
18.09.2018 22:00:00 18,0 14,1 15 8 33 18 SSW 1015,4 - 0,0
18.09.2018 21:00:00 19,5 13,9 18 10 41 22 SW 1015,2 - 0,0
18.09.2018 20:00:00 20,2 13,6 26 14 50 27 SW 1014,8 13 0,0
18.09.2018 19:00:00 20,1 13,8 27 14 54 29 WSW 1014,6 - 0,0
18.09.2018 18:00:00 20,2 12,9 24 13 58 31 WSW 1014,1 - 0,0
18.09.2018 17:00:00 20,6 13,8 33 18 68 37 SW 1013,8 - 0,0
18.09.2018 16:00:00 21,5 13,7 35 19 68 37 SW 1013,3 - 0,0
18.09.2018 15:00:00 21,6 13,2 39 21 66 36 SW 1012,9 - 0,0
18.09.2018 14:00:00 22,1 13,2 39 21 76 41 SW 1012,5 15 0,0
18.09.2018 13:00:00 21,3 13,5 29 16 66 36 WSW 1011,9 - 0,0
18.09.2018 12:00:00 21,4 14,8 29 16 63 34 WSW 1011,3 - 0,0
18.09.2018 11:00:00 20,9 14,5 36 19 60 33 SW 1010,5 10 0,0
18.09.2018 10:00:00 20,7 14,8 26 14 54 29 SW 1010,1 - 0,0
18.09.2018 09:00:00 19,1 15,6 21 11 37 20 SW 1010,0 - 0,0
18.09.2018 08:00:00 18,1 15,0 16 9 37 20 SSW 1009,5 10 0,0
18.09.2018 07:00:00 18,5 13,1 21 12 34 19 SW 1009,1 - 0,0
18.09.2018 06:00:00 17,5 9,1 13 7 22 12 SSW 1008,7 - 0,0
18.09.2018 05:00:00 17,9 8,7 16 9 26 14 S 1008,6 - 0,0
18.09.2018 04:00:00 18,2 8,7 17 9 29 15 S 1008,8 - 0,0
18.09.2018 03:00:00 18,4 8,6 19 10 27 15 S 1009,4 - 0,0
18.09.2018 02:00:00 18,8 8,7 19 11 26 14 S 1010,0 - 0,0
18.09.2018 01:00:00 19,6 8,6 20 11 27 14 SSE 1010,4 - 0,0
18.09.2018 00:00:00 20,3 8,6 16 9 22 12 SSE 1011,0 - 0,0
17.09.2018 23:00:00 20,5 9,1 17 9 24 13 SSE 1011,6 20 0,0
17.09.2018 22:00:00 21,2 9,4 18 10 26 14 SSE 1012,2 - 0,0
17.09.2018 21:00:00 22,2 9,7 16 9 22 12 SSE 1012,7 - 0,0
17.09.2018 20:00:00 23,2 9,6 11 6 23 12 SSE 1013,3 - 0,0
17.09.2018 19:00:00 24,8 9,9 16 9 24 13 SSE 1013,5 - 0,0
17.09.2018 18:00:00 25,8 9,2 16 9 28 15 S 1013,9 - 0,0
17.09.2018 17:00:00 26,1 7,6 19 10 33 18 S 1014,7 20 0,0
17.09.2018 16:00:00 26,1 9,0 20 11 32 17 S 1015,4 - 0,0
17.09.2018 15:00:00 25,5 8,5 22 12 35 19 S 1016,2 - 0,0
17.09.2018 14:00:00 24,4 9,5 21 11 34 19 SSW 1017,0 20 0,0
17.09.2018 13:00:00 23,4 10,1 23 12 32 17 S 1017,7 - 0,0
17.09.2018 12:00:00 21,8 10,9 15 8 22 12 S 1018,3 - 0,0
17.09.2018 11:00:00 19,6 10,6 14 7 18 10 S 1018,7 20 0,0
17.09.2018 10:00:00 17,2 10,6 10 6 15 8 S 1019,0 - 0,0
17.09.2018 09:00:00 14,0 9,4 9 5 18 10 S 1019,1 - 0,0
17.09.2018 08:00:00 13,0 9,3 13 7 19 10 S 1018,8 - 0,0
17.09.2018 07:00:00 13,3 9,2 5 3 13 7 S 1018,7 - 0,0
17.09.2018 06:00:00 13,6 9,6 10 5 19 11 SSW 1018,3 - 0,0
17.09.2018 05:00:00 14,6 10,2 15 8 19 11 SSW 1018,5 20 0,0
17.09.2018 04:00:00 14,5 10,3 13 7 21 11 SSW 1019,0 - 0,0
17.09.2018 03:00:00 15,0 10,8 11 6 20 11 SSW 1019,1 - 0,0
17.09.2018 02:00:00 15,0 10,2 12 6 17 9 SSW 1019,4 25 0,0
17.09.2018 01:00:00 15,5 10,0 10 5 18 10 SSW 1019,4 - 0,0
17.09.2018 00:00:00 16,1 10,2 13 7 18 10 SSW 1019,6 - 0,0
16.09.2018 23:00:00 16,7 9,6 11 6 20 11 SSW 1019,8 25 0,0

tt = temperature
td = dewpoint
ff = wind speed
fx = gusts
dd = wind direction
ppp = reduced air pressure
vv = visibility
rr = precipitation

Next stations